owner,sensor,date,latitude,longitude,vertical_datum,sea_water_practical_salinity,qcFlag 
NERRS,ioos:station:NOAA.NERRS:gndpcwq:1,2014-01-03T16:00:00Z,30.3486,-88.4185,0.75,22.4,1111122 
NERRS,ioos:station:NOAA.NERRS:gndpcwq:1,2014-01-03T17:00:00Z,30.3486,-88.4185,0.83,23.1,1111122 
NERRS,ioos:station:NOAA.NERRS:gndpcwq:1,2014-01-03T18:00:00Z,30.3486,-88.4185,0.9,23.1,1111122 
NERRS,ioos:station:NOAA.NERRS:gndpcwq:1,2014-01-03T19:00:00Z,30.3486,-88.4185,1.0,23.1,1111122 
NERRS,ioos:station:NOAA.NERRS:gndpcwq:1,2014-01-03T20:00:00Z,30.3486,-88.4185,1.07,23.1,1111122 
NERRS,ioos:station:NOAA.NERRS:gndpcwq:1,2014-01-03T21:00:00Z,30.3486,-88.4185,1.11,23.1,1111122 
NERRS,ioos:station:NOAA.NERRS:gndpcwq:1,2014-01-03T22:00:00Z,30.3486,-88.4185,1.15,22.9,1111122 
NERRS,ioos:station:NOAA.NERRS:gndpcwq:1,2014-01-03T23:00:00Z,30.3486,-88.4185,1.16,23.0,1111122 
NERRS,ioos:station:NOAA.NERRS:gndpcwq:1,2014-01-04T00:00:00Z,30.3486,-88.4185,1.19,22.9,1111122 
NERRS,ioos:station:NOAA.NERRS:gndpcwq:1,2014-01-04T01:00:00Z,30.3486,-88.4185,1.25,22.8,1111122 
NERRS,ioos:station:NOAA.NERRS:gndpcwq:1,2014-01-04T02:00:00Z,30.3486,-88.4185,1.34,22.5,1111122 
NERRS,ioos:station:NOAA.NERRS:gndpcwq:1,2014-01-04T03:00:00Z,30.3486,-88.4185,1.45,22.6,1111122 
NERRS,ioos:station:NOAA.NERRS:gndpcwq:1,2014-01-04T04:00:00Z,30.3486,-88.4185,1.5,22.4,1111122 
NERRS,ioos:station:NOAA.NERRS:gndpcwq:1,2014-01-04T05:00:00Z,30.3486,-88.4185,1.49,22.4,1111122 
NERRS,ioos:station:NOAA.NERRS:gndpcwq:1,2014-01-04T06:00:00Z,30.3486,-88.4185,1.46,22.3,1111122 
NERRS,ioos:station:NOAA.NERRS:gndpcwq:1,2014-01-04T07:00:00Z,30.3486,-88.4185,1.46,22.3,1111122 
NERRS,ioos:station:NOAA.NERRS:gndpcwq:1,2014-01-04T08:00:00Z,30.3486,-88.4185,1.41,22.4,1111122 
NERRS,ioos:station:NOAA.NERRS:gndpcwq:1,2014-01-04T09:00:00Z,30.3486,-88.4185,1.37,22.5,1111122 
NERRS,ioos:station:NOAA.NERRS:gndpcwq:1,2014-01-04T10:00:00Z,30.3486,-88.4185,1.26,22.5,1111122 
NERRS,ioos:station:NOAA.NERRS:gndpcwq:1,2014-01-04T11:00:00Z,30.3486,-88.4185,1.16,22.5,1111122 
NERRS,ioos:station:NOAA.NERRS:gndpcwq:1,2014-01-04T12:00:00Z,30.3486,-88.4185,1.06,22.7,1111122 
NERRS,ioos:station:NOAA.NERRS:gndpcwq:1,2014-01-04T13:00:00Z,30.3486,-88.4185,1.01,22.8,1111122 
NERRS,ioos:station:NOAA.NERRS:gndpcwq:1,2014-01-04T14:00:00Z,30.3486,-88.4185,1.01,22.8,1111122 
NERRS,ioos:station:NOAA.NERRS:gndpcwq:1,2014-01-04T15:00:00Z,30.3486,-88.4185,1.03,22.7,1111122 
NERRS,ioos:station:NOAA.NERRS:gndpcwq:1,2014-01-04T16:00:00Z,30.3486,-88.4185,1.07,22.6,1111122 
NERRS,ioos:station:NOAA.NERRS:gndpcwq:1,2014-01-04T17:00:00Z,30.3486,-88.4185,1.05,22.6,1111122 
NERRS,ioos:station:NOAA.NERRS:gndpcwq:1,2014-01-04T18:00:00Z,30.3486,-88.4185,1.07,22.5,1111122 
NERRS,ioos:station:NOAA.NERRS:gndpcwq:1,2014-01-04T19:00:00Z,30.3486,-88.4185,1.1,22.7,1111122 
NERRS,ioos:station:NOAA.NERRS:gndpcwq:1,2014-01-04T20:00:00Z,30.3486,-88.4185,1.16,22.2,1111122 
NERRS,ioos:station:NOAA.NERRS:gndpcwq:1,2014-01-04T21:00:00Z,30.3486,-88.4185,1.21,22.1,1111122 
NERRS,ioos:station:NOAA.NERRS:gndpcwq:1,2014-01-04T22:00:00Z,30.3486,-88.4185,1.25,22.1,1111122 
NERRS,ioos:station:NOAA.NERRS:gndpcwq:1,2014-01-04T23:00:00Z,30.3486,-88.4185,1.28,22.2,1111122 
NERRS,ioos:station:NOAA.NERRS:gndpcwq:1,2014-01-05T00:00:00Z,30.3486,-88.4185,1.31,22.3,1111122 
NERRS,ioos:station:NOAA.NERRS:gndpcwq:1,2014-01-05T01:00:00Z,30.3486,-88.4185,1.33,22.4,1111122 
NERRS,ioos:station:NOAA.NERRS:gndpcwq:1,2014-01-05T02:00:00Z,30.3486,-88.4185,1.4,22.2,1111122 
NERRS,ioos:station:NOAA.NERRS:gndpcwq:1,2014-01-05T03:00:00Z,30.3486,-88.4185,1.46,22.1,1111122 
NERRS,ioos:station:NOAA.NERRS:gndpcwq:1,2014-01-05T04:00:00Z,30.3486,-88.4185,1.54,21.7,1111122 
NERRS,ioos:station:NOAA.NERRS:gndpcwq:1,2014-01-05T05:00:00Z,30.3486,-88.4185,1.55,21.7,1111122 
NERRS,ioos:station:NOAA.NERRS:gndpcwq:1,2014-01-05T06:00:00Z,30.3486,-88.4185,1.53,21.7,1111122 
NERRS,ioos:station:NOAA.NERRS:gndpcwq:1,2014-01-05T07:00:00Z,30.3486,-88.4185,1.49,22.0,1111122 
NERRS,ioos:station:NOAA.NERRS:gndpcwq:1,2014-01-05T08:00:00Z,30.3486,-88.4185,1.45,22.0,1111122 
NERRS,ioos:station:NOAA.NERRS:gndpcwq:1,2014-01-05T09:00:00Z,30.3486,-88.4185,1.44,22.0,1111122 
NERRS,ioos:station:NOAA.NERRS:gndpcwq:1,2014-01-05T10:00:00Z,30.3486,-88.4185,1.38,22.1,1111122 
NERRS,ioos:station:NOAA.NERRS:gndpcwq:1,2014-01-05T11:00:00Z,30.3486,-88.4185,1.31,22.1,1111122 
NERRS,ioos:station:NOAA.NERRS:gndpcwq:1,2014-01-05T12:00:00Z,30.3486,-88.4185,1.23,22.1,1111122 
NERRS,ioos:station:NOAA.NERRS:gndpcwq:1,2014-01-05T13:00:00Z,30.3486,-88.4185,1.19,22.1,1111122 
NERRS,ioos:station:NOAA.NERRS:gndpcwq:1,2014-01-05T14:00:00Z,30.3486,-88.4185,1.19,22.1,1111122 
NERRS,ioos:station:NOAA.NERRS:gndpcwq:1,2014-01-05T15:00:00Z,30.3486,-88.4185,1.21,22.1,1111122 
NERRS,ioos:station:NOAA.NERRS:gndpcwq:1,2014-01-05T16:00:00Z,30.3486,-88.4185,1.23,22.1,1111122 
NERRS,ioos:station:NOAA.NERRS:gndpcwq:1,2014-01-05T17:00:00Z,30.3486,-88.4185,1.25,22.4,1111122 
NERRS,ioos:station:NOAA.NERRS:gndpcwq:1,2014-01-05T18:00:00Z,30.3486,-88.4185,1.28,22.5,1111122 
NERRS,ioos:station:NOAA.NERRS:gndpcwq:1,2014-01-05T19:00:00Z,30.3486,-88.4185,1.29,22.4,1111122 
NERRS,ioos:station:NOAA.NERRS:gndpcwq:1,2014-01-05T20:00:00Z,30.3486,-88.4185,1.33,22.5,1111122 
NERRS,ioos:station:NOAA.NERRS:gndpcwq:1,2014-01-05T21:00:00Z,30.3486,-88.4185,1.37,22.5,1111122 
NERRS,ioos:station:NOAA.NERRS:gndpcwq:1,2014-01-05T22:00:00Z,30.3486,-88.4185,1.42,22.5,1111122 
NERRS,ioos:station:NOAA.NERRS:gndpcwq:1,2014-01-05T23:00:00Z,30.3486,-88.4185,1.45,22.5,1111122 
NERRS,ioos:station:NOAA.NERRS:gndpcwq:1,2014-01-06T00:00:00Z,30.3486,-88.4185,1.49,22.5,1111122 
NERRS,ioos:station:NOAA.NERRS:gndpcwq:1,2014-01-06T01:00:00Z,30.3486,-88.4185,1.51,22.6,1111122 
NERRS,ioos:station:NOAA.NERRS:gndpcwq:1,2014-01-06T02:00:00Z,30.3486,-88.4185,1.54,22.6,1111122 
NERRS,ioos:station:NOAA.NERRS:gndpcwq:1,2014-01-06T03:00:00Z,30.3486,-88.4185,1.57,22.2,1111122 
NERRS,ioos:station:NOAA.NERRS:gndpcwq:1,2014-01-06T04:00:00Z,30.3486,-88.4185,1.56,20.6,1111122 
NERRS,ioos:station:NOAA.NERRS:gndpcwq:1,2014-01-06T05:00:00Z,30.3486,-88.4185,1.43,20.3,1111122 
NERRS,ioos:station:NOAA.NERRS:gndpcwq:1,2014-01-06T06:00:00Z,30.3486,-88.4185,1.32,20.4,1111122 
NERRS,ioos:station:NOAA.NERRS:gndpcwq:1,2014-01-06T07:00:00Z,30.3486,-88.4185,1.15,20.6,1111122 
NERRS,ioos:station:NOAA.NERRS:gndpcwq:1,2014-01-06T08:00:00Z,30.3486,-88.4185,1.06,21.0,1111122 
NERRS,ioos:station:NOAA.NERRS:gndpcwq:1,2014-01-06T09:00:00Z,30.3486,-88.4185,1.04,21.1,1111122 
NERRS,ioos:station:NOAA.NERRS:gndpcwq:1,2014-01-06T10:00:00Z,30.3486,-88.4185,1.01,21.1,1111122 
NERRS,ioos:station:NOAA.NERRS:gndpcwq:1,2014-01-06T11:00:00Z,30.3486,-88.4185,0.97,20.7,1111122 
NERRS,ioos:station:NOAA.NERRS:gndpcwq:1,2014-01-06T12:00:00Z,30.3486,-88.4185,0.95,20.0,1111122 
NERRS,ioos:station:NOAA.NERRS:gndpcwq:1,2014-01-06T13:00:00Z,30.3486,-88.4185,0.89,20.0,1111122 
NERRS,ioos:station:NOAA.NERRS:gndpcwq:1,2014-01-06T14:00:00Z,30.3486,-88.4185,0.9,20.1,1111122 
NERRS,ioos:station:NOAA.NERRS:gndpcwq:1,2014-01-06T15:00:00Z,30.3486,-88.4185,0.93,20.3,1111122 
NERRS,ioos:station:NOAA.NERRS:gndpcwq:1,2014-01-06T16:00:00Z,30.3486,-88.4185,0.96,20.3,1111122 
NERRS,ioos:station:NOAA.NERRS:gndpcwq:1,2014-01-06T17:00:00Z,30.3486,-88.4185,0.98,20.4,1111122 
NERRS,ioos:station:NOAA.NERRS:gndpcwq:1,2014-01-06T18:00:00Z,30.3486,-88.4185,0.98,20.4,1111122 
NERRS,ioos:station:NOAA.NERRS:gndpcwq:1,2014-01-06T19:00:00Z,30.3486,-88.4185,0.99,20.4,1111122 
NERRS,ioos:station:NOAA.NERRS:gndpcwq:1,2014-01-06T20:00:00Z,30.3486,-88.4185,1.05,21.0,1111122 
NERRS,ioos:station:NOAA.NERRS:gndpcwq:1,2014-01-06T21:00:00Z,30.3486,-88.4185,1.08,21.4,1111122 
NERRS,ioos:station:NOAA.NERRS:gndpcwq:1,2014-01-06T22:00:00Z,30.3486,-88.4185,1.09,21.4,1111122 
NERRS,ioos:station:NOAA.NERRS:gndpcwq:1,2014-01-06T23:00:00Z,30.3486,-88.4185,1.09,21.2,1111122 
NERRS,ioos:station:NOAA.NERRS:gndpcwq:1,2014-01-07T00:00:00Z,30.3486,-88.4185,1.11,21.2,1111122 
NERRS,ioos:station:NOAA.NERRS:gndpcwq:1,2014-01-07T01:00:00Z,30.3486,-88.4185,1.11,21.4,1111122 
NERRS,ioos:station:NOAA.NERRS:gndpcwq:1,2014-01-07T02:00:00Z,30.3486,-88.4185,1.13,21.4,1111122 
NERRS,ioos:station:NOAA.NERRS:gndpcwq:1,2014-01-07T03:00:00Z,30.3486,-88.4185,1.11,20.9,1111122 
NERRS,ioos:station:NOAA.NERRS:gndpcwq:1,2014-01-07T04:00:00Z,30.3486,-88.4185,1.1,21.0,1111122 
NERRS,ioos:station:NOAA.NERRS:gndpcwq:1,2014-01-07T05:00:00Z,30.3486,-88.4185,1.09,21.3,1111122 
NERRS,ioos:station:NOAA.NERRS:gndpcwq:1,2014-01-07T06:00:00Z,30.3486,-88.4185,1.09,21.4,1111122 
NERRS,ioos:station:NOAA.NERRS:gndpcwq:1,2014-01-07T07:00:00Z,30.3486,-88.4185,1.07,21.2,1111122 
NERRS,ioos:station:NOAA.NERRS:gndpcwq:1,2014-01-07T08:00:00Z,30.3486,-88.4185,1.09,21.2,1111122 
NERRS,ioos:station:NOAA.NERRS:gndpcwq:1,2014-01-07T09:00:00Z,30.3486,-88.4185,1.09,21.3,1111122 
NERRS,ioos:station:NOAA.NERRS:gndpcwq:1,2014-01-07T10:00:00Z,30.3486,-88.4185,1.09,21.5,1111122 
NERRS,ioos:station:NOAA.NERRS:gndpcwq:1,2014-01-07T11:00:00Z,30.3486,-88.4185,1.09,21.7,1111122 
NERRS,ioos:station:NOAA.NERRS:gndpcwq:1,2014-01-07T12:00:00Z,30.3486,-88.4185,1.07,21.7,1111122 
NERRS,ioos:station:NOAA.NERRS:gndpcwq:1,2014-01-07T13:00:00Z,30.3486,-88.4185,1.08,21.7,1111122 
NERRS,ioos:station:NOAA.NERRS:gndpcwq:1,2014-01-07T14:00:00Z,30.3486,-88.4185,1.08,21.9,1111122 
NERRS,ioos:station:NOAA.NERRS:gndpcwq:1,2014-01-07T15:00:00Z,30.3486,-88.4185,1.08,22.0,1111122 
NERRS,ioos:station:NOAA.NERRS:gndpcwq:1,2014-01-07T16:00:00Z,30.3486,-88.4185,1.1,22.1,1111122 
NERRS,ioos:station:NOAA.NERRS:gndpcwq:1,2014-01-07T17:00:00Z,30.3486,-88.4185,1.17,22.2,1111122 
NERRS,ioos:station:NOAA.NERRS:gndpcwq:1,2014-01-07T18:00:00Z,30.3486,-88.4185,1.19,22.4,1111122 
NERRS,ioos:station:NOAA.NERRS:gndpcwq:1,2014-01-07T19:00:00Z,30.3486,-88.4185,1.22,22.9,1111122 
NERRS,ioos:station:NOAA.NERRS:gndpcwq:1,2014-01-07T20:00:00Z,30.3486,-88.4185,1.21,22.9,1111122 
NERRS,ioos:station:NOAA.NERRS:gndpcwq:1,2014-01-07T21:00:00Z,30.3486,-88.4185,1.2,22.5,1111122 
NERRS,ioos:station:NOAA.NERRS:gndpcwq:1,2014-01-07T22:00:00Z,30.3486,-88.4185,1.17,22.5,1111122 
NERRS,ioos:station:NOAA.NERRS:gndpcwq:1,2014-01-07T23:00:00Z,30.3486,-88.4185,1.17,22.5,1111122 
NERRS,ioos:station:NOAA.NERRS:gndpcwq:1,2014-01-08T00:00:00Z,30.3486,-88.4185,1.14,22.5,1111122 
NERRS,ioos:station:NOAA.NERRS:gndpcwq:1,2014-01-08T01:00:00Z,30.3486,-88.4185,1.13,22.5,1111122 
NERRS,ioos:station:NOAA.NERRS:gndpcwq:1,2014-01-08T02:00:00Z,30.3486,-88.4185,1.11,22.5,1111122 
NERRS,ioos:station:NOAA.NERRS:gndpcwq:1,2014-01-08T03:00:00Z,30.3486,-88.4185,1.1,22.6,1111122 
NERRS,ioos:station:NOAA.NERRS:gndpcwq:1,2014-01-08T04:00:00Z,30.3486,-88.4185,1.05,22.5,1111122 
NERRS,ioos:station:NOAA.NERRS:gndpcwq:1,2014-01-08T05:00:00Z,30.3486,-88.4185,1.04,22.4,1111122 
NERRS,ioos:station:NOAA.NERRS:gndpcwq:1,2014-01-08T06:00:00Z,30.3486,-88.4185,1.04,22.4,1111122 
NERRS,ioos:station:NOAA.NERRS:gndpcwq:1,2014-01-08T07:00:00Z,30.3486,-88.4185,1.02,22.3,1111122 
NERRS,ioos:station:NOAA.NERRS:gndpcwq:1,2014-01-08T08:00:00Z,30.3486,-88.4185,0.99,22.2,1111122 
NERRS,ioos:station:NOAA.NERRS:gndpcwq:1,2014-01-08T09:00:00Z,30.3486,-88.4185,0.98,22.3,1111122 
NERRS,ioos:station:NOAA.NERRS:gndpcwq:1,2014-01-08T10:00:00Z,30.3486,-88.4185,0.97,22.3,1111122 
NERRS,ioos:station:NOAA.NERRS:gndpcwq:1,2014-01-08T11:00:00Z,30.3486,-88.4185,0.97,22.6,1111122 
NERRS,ioos:station:NOAA.NERRS:gndpcwq:1,2014-01-08T12:00:00Z,30.3486,-88.4185,1.0,23.0,1111122 
NERRS,ioos:station:NOAA.NERRS:gndpcwq:1,2014-01-08T13:00:00Z,30.3486,-88.4185,1.02,23.3,1111122 
NERRS,ioos:station:NOAA.NERRS:gndpcwq:1,2014-01-08T14:00:00Z,30.3486,-88.4185,1.07,23.2,1111122 
NERRS,ioos:station:NOAA.NERRS:gndpcwq:1,2014-01-08T15:00:00Z,30.3486,-88.4185,1.12,23.2,1111122 
NERRS,ioos:station:NOAA.NERRS:gndpcwq:1,2014-01-08T16:00:00Z,30.3486,-88.4185,1.18,23.1,1111122 
NERRS,ioos:station:NOAA.NERRS:gndpcwq:1,2014-01-08T17:00:00Z,30.3486,-88.4185,1.22,23.0,1111122 
NERRS,ioos:station:NOAA.NERRS:gndpcwq:1,2014-01-08T18:00:00Z,30.3486,-88.4185,1.27,23.2,1111122 
NERRS,ioos:station:NOAA.NERRS:gndpcwq:1,2014-01-08T19:00:00Z,30.3486,-88.4185,1.33,23.4,1111122 
NERRS,ioos:station:NOAA.NERRS:gndpcwq:1,2014-01-08T20:00:00Z,30.3486,-88.4185,1.42,23.4,1111122 
NERRS,ioos:station:NOAA.NERRS:gndpcwq:1,2014-01-08T21:00:00Z,30.3486,-88.4185,1.44,23.3,1111122 
NERRS,ioos:station:NOAA.NERRS:gndpcwq:1,2014-01-08T22:00:00Z,30.3486,-88.4185,1.45,23.2,1111122 
NERRS,ioos:station:NOAA.NERRS:gndpcwq:1,2014-01-08T23:00:00Z,30.3486,-88.4185,1.43,23.3,1111122 
NERRS,ioos:station:NOAA.NERRS:gndpcwq:1,2014-01-09T00:00:00Z,30.3486,-88.4185,1.41,23.5,1111122 
NERRS,ioos:station:NOAA.NERRS:gndpcwq:1,2014-01-09T01:00:00Z,30.3486,-88.4185,1.42,23.6,1111122 
NERRS,ioos:station:NOAA.NERRS:gndpcwq:1,2014-01-09T02:00:00Z,30.3486,-88.4185,1.41,23.8,1111122 
NERRS,ioos:station:NOAA.NERRS:gndpcwq:1,2014-01-09T03:00:00Z,30.3486,-88.4185,1.39,23.7,1111122 
NERRS,ioos:station:NOAA.NERRS:gndpcwq:1,2014-01-09T04:00:00Z,30.3486,-88.4185,1.33,23.6,1111122 
NERRS,ioos:station:NOAA.NERRS:gndpcwq:1,2014-01-09T05:00:00Z,30.3486,-88.4185,1.28,23.4,1111122 
NERRS,ioos:station:NOAA.NERRS:gndpcwq:1,2014-01-09T06:00:00Z,30.3486,-88.4185,1.23,23.3,1111122 
NERRS,ioos:station:NOAA.NERRS:gndpcwq:1,2014-01-09T07:00:00Z,30.3486,-88.4185,1.2,23.2,1111122 
NERRS,ioos:station:NOAA.NERRS:gndpcwq:1,2014-01-09T08:00:00Z,30.3486,-88.4185,1.17,23.0,1111122 
NERRS,ioos:station:NOAA.NERRS:gndpcwq:1,2014-01-09T09:00:00Z,30.3486,-88.4185,1.15,23.1,1111122 
NERRS,ioos:station:NOAA.NERRS:gndpcwq:1,2014-01-09T10:00:00Z,30.3486,-88.4185,1.12,22.9,1111122 
NERRS,ioos:station:NOAA.NERRS:gndpcwq:1,2014-01-09T11:00:00Z,30.3486,-88.4185,1.09,22.7,1111122 
NERRS,ioos:station:NOAA.NERRS:gndpcwq:1,2014-01-09T12:00:00Z,30.3486,-88.4185,1.1,23.0,1111122 
NERRS,ioos:station:NOAA.NERRS:gndpcwq:1,2014-01-09T13:00:00Z,30.3486,-88.4185,1.14,22.4,1111122 
NERRS,ioos:station:NOAA.NERRS:gndpcwq:1,2014-01-09T14:00:00Z,30.3486,-88.4185,1.19,22.6,1111122 
NERRS,ioos:station:NOAA.NERRS:gndpcwq:1,2014-01-09T15:00:00Z,30.3486,-88.4185,1.26,22.5,1111122 
NERRS,ioos:station:NOAA.NERRS:gndpcwq:1,2014-01-09T16:00:00Z,30.3486,-88.4185,1.3,22.6,1111122 
NERRS,ioos:station:NOAA.NERRS:gndpcwq:1,2014-01-09T17:00:00Z,30.3486,-88.4185,1.34,22.7,1111122 
NERRS,ioos:station:NOAA.NERRS:gndpcwq:1,2014-01-09T18:00:00Z,30.3486,-88.4185,1.39,22.9,1111122 
NERRS,ioos:station:NOAA.NERRS:gndpcwq:1,2014-01-09T19:00:00Z,30.3486,-88.4185,1.44,22.9,1111122 
NERRS,ioos:station:NOAA.NERRS:gndpcwq:1,2014-01-09T20:00:00Z,30.3486,-88.4185,1.49,22.7,1111122 
NERRS,ioos:station:NOAA.NERRS:gndpcwq:1,2014-01-09T21:00:00Z,30.3486,-88.4185,1.51,22.7,1111122 
NERRS,ioos:station:NOAA.NERRS:gndpcwq:1,2014-01-09T22:00:00Z,30.3486,-88.4185,1.52,22.7,1111122 
NERRS,ioos:station:NOAA.NERRS:gndpcwq:1,2014-01-09T23:00:00Z,30.3486,-88.4185,1.52,22.7,1111122 
NERRS,ioos:station:NOAA.NERRS:gndpcwq:1,2014-01-10T00:00:00Z,30.3486,-88.4185,1.52,22.7,1111122 
NERRS,ioos:station:NOAA.NERRS:gndpcwq:1,2014-01-10T01:00:00Z,30.3486,-88.4185,1.52,22.7,1111122 
NERRS,ioos:station:NOAA.NERRS:gndpcwq:1,2014-01-10T02:00:00Z,30.3486,-88.4185,1.5,22.8,1111122 
NERRS,ioos:station:NOAA.NERRS:gndpcwq:1,2014-01-10T03:00:00Z,30.3486,-88.4185,1.45,22.8,1111122 
NERRS,ioos:station:NOAA.NERRS:gndpcwq:1,2014-01-10T04:00:00Z,30.3486,-88.4185,1.39,22.8,1111122 
NERRS,ioos:station:NOAA.NERRS:gndpcwq:1,2014-01-10T05:00:00Z,30.3486,-88.4185,1.34,22.8,1111122 
NERRS,ioos:station:NOAA.NERRS:gndpcwq:1,2014-01-10T06:00:00Z,30.3486,-88.4185,1.27,22.8,1111122 
NERRS,ioos:station:NOAA.NERRS:gndpcwq:1,2014-01-10T07:00:00Z,30.3486,-88.4185,1.21,22.8,1111122 
NERRS,ioos:station:NOAA.NERRS:gndpcwq:1,2014-01-10T08:00:00Z,30.3486,-88.4185,1.16,22.8,1111122 
NERRS,ioos:station:NOAA.NERRS:gndpcwq:1,2014-01-10T09:00:00Z,30.3486,-88.4185,1.15,22.8,1111122 
NERRS,ioos:station:NOAA.NERRS:gndpcwq:1,2014-01-10T10:00:00Z,30.3486,-88.4185,1.12,22.8,1111122 
NERRS,ioos:station:NOAA.NERRS:gndpcwq:1,2014-01-10T11:00:00Z,30.3486,-88.4185,1.09,22.8,1111122 
NERRS,ioos:station:NOAA.NERRS:gndpcwq:1,2014-01-10T12:00:00Z,30.3486,-88.4185,1.09,22.8,1111122 
NERRS,ioos:station:NOAA.NERRS:gndpcwq:1,2014-01-10T13:00:00Z,30.3486,-88.4185,1.12,22.8,1111122 
NERRS,ioos:station:NOAA.NERRS:gndpcwq:1,2014-01-10T14:00:00Z,30.3486,-88.4185,1.2,22.8,1111122 
NERRS,ioos:station:NOAA.NERRS:gndpcwq:1,2014-01-10T15:00:00Z,30.3486,-88.4185,1.28,22.9,1111122 
NERRS,ioos:station:NOAA.NERRS:gndpcwq:1,2014-01-10T16:00:00Z,30.3486,-88.4185,1.32,22.9,1111122 
NERRS,ioos:station:NOAA.NERRS:gndpcwq:1,2014-01-10T17:00:00Z,30.3486,-88.4185,1.35,22.9,1111122 
NERRS,ioos:station:NOAA.NERRS:gndpcwq:1,2014-01-10T18:00:00Z,30.3486,-88.4185,1.37,22.9,1111122 
NERRS,ioos:station:NOAA.NERRS:gndpcwq:1,2014-01-10T19:00:00Z,30.3486,-88.4185,1.4,22.9,1111122 
NERRS,ioos:station:NOAA.NERRS:gndpcwq:1,2014-01-10T20:00:00Z,30.3486,-88.4185,1.46,22.9,1111122 
NERRS,ioos:station:NOAA.NERRS:gndpcwq:1,2014-01-10T21:00:00Z,30.3486,-88.4185,1.53,22.9,1111122 
NERRS,ioos:station:NOAA.NERRS:gndpcwq:1,2014-01-10T22:00:00Z,30.3486,-88.4185,1.58,22.9,1111122 
NERRS,ioos:station:NOAA.NERRS:gndpcwq:1,2014-01-10T23:00:00Z,30.3486,-88.4185,1.6,22.9,1111122 
NERRS,ioos:station:NOAA.NERRS:gndpcwq:1,2014-01-11T00:00:00Z,30.3486,-88.4185,1.58,22.9,1111122 
NERRS,ioos:station:NOAA.NERRS:gndpcwq:1,2014-01-11T01:00:00Z,30.3486,-88.4185,1.56,22.9,1111122 
NERRS,ioos:station:NOAA.NERRS:gndpcwq:1,2014-01-11T02:00:00Z,30.3486,-88.4185,1.56,22.9,1111122 
NERRS,ioos:station:NOAA.NERRS:gndpcwq:1,2014-01-11T03:00:00Z,30.3486,-88.4185,1.56,22.9,1111122 
NERRS,ioos:station:NOAA.NERRS:gndpcwq:1,2014-01-11T04:00:00Z,30.3486,-88.4185,1.51,22.8,1111122 
NERRS,ioos:station:NOAA.NERRS:gndpcwq:1,2014-01-11T05:00:00Z,30.3486,-88.4185,1.43,22.8,1111122 
NERRS,ioos:station:NOAA.NERRS:gndpcwq:1,2014-01-11T06:00:00Z,30.3486,-88.4185,1.35,22.7,1111122 
NERRS,ioos:station:NOAA.NERRS:gndpcwq:1,2014-01-11T07:00:00Z,30.3486,-88.4185,1.28,22.6,1111122 
NERRS,ioos:station:NOAA.NERRS:gndpcwq:1,2014-01-11T08:00:00Z,30.3486,-88.4185,1.22,22.4,1111122 
NERRS,ioos:station:NOAA.NERRS:gndpcwq:1,2014-01-11T09:00:00Z,30.3486,-88.4185,1.19,21.8,1111122 
NERRS,ioos:station:NOAA.NERRS:gndpcwq:1,2014-01-11T10:00:00Z,30.3486,-88.4185,1.17,21.9,1111122 
NERRS,ioos:station:NOAA.NERRS:gndpcwq:1,2014-01-11T11:00:00Z,30.3486,-88.4185,1.17,21.5,1111122 
NERRS,ioos:station:NOAA.NERRS:gndpcwq:1,2014-01-11T12:00:00Z,30.3486,-88.4185,1.17,21.6,1111122 
NERRS,ioos:station:NOAA.NERRS:gndpcwq:1,2014-01-11T13:00:00Z,30.3486,-88.4185,1.18,21.0,1111122 
NERRS,ioos:station:NOAA.NERRS:gndpcwq:1,2014-01-11T14:00:00Z,30.3486,-88.4185,1.23,17.8,1111122 
NERRS,ioos:station:NOAA.NERRS:gndpcwq:1,2014-01-11T15:00:00Z,30.3486,-88.4185,1.26,17.3,1111122 
NERRS,ioos:station:NOAA.NERRS:gndpcwq:1,2014-01-11T16:00:00Z,30.3486,-88.4185,1.34,17.4,1111122 
NERRS,ioos:station:NOAA.NERRS:gndpcwq:1,2014-01-11T17:00:00Z,30.3486,-88.4185,1.25,17.2,1111122 
NERRS,ioos:station:NOAA.NERRS:gndpcwq:1,2014-01-11T18:00:00Z,30.3486,-88.4185,1.23,17.5,1111122 
NERRS,ioos:station:NOAA.NERRS:gndpcwq:1,2014-01-11T19:00:00Z,30.3486,-88.4185,1.26,17.3,1111122 
NERRS,ioos:station:NOAA.NERRS:gndpcwq:1,2014-01-11T20:00:00Z,30.3486,-88.4185,1.34,17.0,1111122 
NERRS,ioos:station:NOAA.NERRS:gndpcwq:1,2014-01-11T21:00:00Z,30.3486,-88.4185,1.43,18.6,1111122 
NERRS,ioos:station:NOAA.NERRS:gndpcwq:1,2014-01-11T22:00:00Z,30.3486,-88.4185,1.45,18.8,1111122 
NERRS,ioos:station:NOAA.NERRS:gndpcwq:1,2014-01-11T23:00:00Z,30.3486,-88.4185,1.46,18.8,1111122 
NERRS,ioos:station:NOAA.NERRS:gndpcwq:1,2014-01-12T00:00:00Z,30.3486,-88.4185,1.44,18.9,1111122 
NERRS,ioos:station:NOAA.NERRS:gndpcwq:1,2014-01-12T01:00:00Z,30.3486,-88.4185,1.42,18.9,1111122 
NERRS,ioos:station:NOAA.NERRS:gndpcwq:1,2014-01-12T02:00:00Z,30.3486,-88.4185,1.41,18.9,1111122 
NERRS,ioos:station:NOAA.NERRS:gndpcwq:1,2014-01-12T03:00:00Z,30.3486,-88.4185,1.4,18.8,1111122 
NERRS,ioos:station:NOAA.NERRS:gndpcwq:1,2014-01-12T04:00:00Z,30.3486,-88.4185,1.35,18.8,1111122 
NERRS,ioos:station:NOAA.NERRS:gndpcwq:1,2014-01-12T05:00:00Z,30.3486,-88.4185,1.28,18.8,1111122 
NERRS,ioos:station:NOAA.NERRS:gndpcwq:1,2014-01-12T06:00:00Z,30.3486,-88.4185,1.2,18.9,1111122 
NERRS,ioos:station:NOAA.NERRS:gndpcwq:1,2014-01-12T07:00:00Z,30.3486,-88.4185,1.11,18.8,1111122 
NERRS,ioos:station:NOAA.NERRS:gndpcwq:1,2014-01-12T08:00:00Z,30.3486,-88.4185,1.06,18.8,1111122 
NERRS,ioos:station:NOAA.NERRS:gndpcwq:1,2014-01-12T09:00:00Z,30.3486,-88.4185,1.04,18.9,1111122 
NERRS,ioos:station:NOAA.NERRS:gndpcwq:1,2014-01-12T10:00:00Z,30.3486,-88.4185,1.0,18.9,1111122 
NERRS,ioos:station:NOAA.NERRS:gndpcwq:1,2014-01-12T11:00:00Z,30.3486,-88.4185,0.97,18.9,1111122 
NERRS,ioos:station:NOAA.NERRS:gndpcwq:1,2014-01-12T12:00:00Z,30.3486,-88.4185,0.98,18.9,1111122 
NERRS,ioos:station:NOAA.NERRS:gndpcwq:1,2014-01-12T13:00:00Z,30.3486,-88.4185,0.99,18.9,1111122 
NERRS,ioos:station:NOAA.NERRS:gndpcwq:1,2014-01-12T14:00:00Z,30.3486,-88.4185,1.06,19.0,1111122 
NERRS,ioos:station:NOAA.NERRS:gndpcwq:1,2014-01-12T15:00:00Z,30.3486,-88.4185,1.14,18.9,1111122 
NERRS,ioos:station:NOAA.NERRS:gndpcwq:1,2014-01-12T16:00:00Z,30.3486,-88.4185,1.21,19.0,1111122 
NERRS,ioos:station:NOAA.NERRS:gndpcwq:1,2014-01-12T17:00:00Z,30.3486,-88.4185,1.26,19.2,1111122 
NERRS,ioos:station:NOAA.NERRS:gndpcwq:1,2014-01-12T18:00:00Z,30.3486,-88.4185,1.28,19.4,1111122 
NERRS,ioos:station:NOAA.NERRS:gndpcwq:1,2014-01-12T19:00:00Z,30.3486,-88.4185,1.33,19.3,1111122 
NERRS,ioos:station:NOAA.NERRS:gndpcwq:1,2014-01-12T19:45:00Z,30.3486,-88.4185,1.37,20.4,1111122 
NERRS,ioos:station:NOAA.NERRS:gndpcwq:1,2014-01-12T21:00:00Z,30.3486,-88.4185,1.46,21.2,1111122 
NERRS,ioos:station:NOAA.NERRS:gndpcwq:1,2014-01-12T22:00:00Z,30.3486,-88.4185,1.49,21.2,1111122 
NERRS,ioos:station:NOAA.NERRS:gndpcwq:1,2014-01-12T23:00:00Z,30.3486,-88.4185,1.54,20.8,1111122 
NERRS,ioos:station:NOAA.NERRS:gndpcwq:1,2014-01-13T00:00:00Z,30.3486,-88.4185,1.56,20.1,1111122 
NERRS,ioos:station:NOAA.NERRS:gndpcwq:1,2014-01-13T01:00:00Z,30.3486,-88.4185,1.55,19.8,1111122 
NERRS,ioos:station:NOAA.NERRS:gndpcwq:1,2014-01-13T02:00:00Z,30.3486,-88.4185,1.56,19.5,1111122 
NERRS,ioos:station:NOAA.NERRS:gndpcwq:1,2014-01-13T03:00:00Z,30.3486,-88.4185,1.53,19.2,1111122 
NERRS,ioos:station:NOAA.NERRS:gndpcwq:1,2014-01-13T04:00:00Z,30.3486,-88.4185,1.49,19.0,1111122 
NERRS,ioos:station:NOAA.NERRS:gndpcwq:1,2014-01-13T05:00:00Z,30.3486,-88.4185,1.43,18.8,1111122 
NERRS,ioos:station:NOAA.NERRS:gndpcwq:1,2014-01-13T06:00:00Z,30.3486,-88.4185,1.35,18.6,1111122 
NERRS,ioos:station:NOAA.NERRS:gndpcwq:1,2014-01-13T07:00:00Z,30.3486,-88.4185,1.25,18.7,1111122 
NERRS,ioos:station:NOAA.NERRS:gndpcwq:1,2014-01-13T08:00:00Z,30.3486,-88.4185,1.17,18.6,1111122 
NERRS,ioos:station:NOAA.NERRS:gndpcwq:1,2014-01-13T09:00:00Z,30.3486,-88.4185,1.09,18.6,1111122 
NERRS,ioos:station:NOAA.NERRS:gndpcwq:1,2014-01-13T10:00:00Z,30.3486,-88.4185,1.04,18.6,1111122 
NERRS,ioos:station:NOAA.NERRS:gndpcwq:1,2014-01-13T11:00:00Z,30.3486,-88.4185,1.03,19.1,1111122 
NERRS,ioos:station:NOAA.NERRS:gndpcwq:1,2014-01-13T12:00:00Z,30.3486,-88.4185,1.04,19.1,1111122 
NERRS,ioos:station:NOAA.NERRS:gndpcwq:1,2014-01-13T13:00:00Z,30.3486,-88.4185,1.03,18.9,1111122 
NERRS,ioos:station:NOAA.NERRS:gndpcwq:1,2014-01-13T14:00:00Z,30.3486,-88.4185,1.05,19.0,1111122 
NERRS,ioos:station:NOAA.NERRS:gndpcwq:1,2014-01-13T15:00:00Z,30.3486,-88.4185,1.09,18.9,1111122 
NERRS,ioos:station:NOAA.NERRS:gndpcwq:1,2014-01-13T16:00:00Z,30.3486,-88.4185,1.11,18.5,1111122 
NERRS,ioos:station:NOAA.NERRS:gndpcwq:1,2014-01-13T17:00:00Z,30.3486,-88.4185,1.18,18.8,1111122 
NERRS,ioos:station:NOAA.NERRS:gndpcwq:1,2014-01-13T18:00:00Z,30.3486,-88.4185,1.22,19.1,1111122 
NERRS,ioos:station:NOAA.NERRS:gndpcwq:1,2014-01-13T19:00:00Z,30.3486,-88.4185,1.31,19.2,1111122 
NERRS,ioos:station:NOAA.NERRS:gndpcwq:1,2014-01-13T20:00:00Z,30.3486,-88.4185,1.3,19.2,1111122 
NERRS,ioos:station:NOAA.NERRS:gndpcwq:1,2014-01-13T21:00:00Z,30.3486,-88.4185,1.39,19.0,1111122 